Location: Newark
(46.7000°N, 60.6000°W)
Time: 21:00:03
(UTC+00:00)

Explorer 7 - All Passes

Search period start: 28 October 2020 00:00
Search period end: 07 November 2020 00:00
Orbit: 484 x 678 km, 50.3° (Epoch: 27 October)

Date Brightness Start Highest point End Pass type
(mag) Time Alt. Az. Time Alt. Az. Time Alt. Az.
28 Oct - 01:20:55 10° WSW 01:22:03 11° SW 01:23:11 10° SSW night (unlit)
28 Oct - 17:01:56 10° S 17:04:52 22° SE 17:07:49 10° E daylight
28 Oct - 18:41:12 10° WSW 18:44:57 88° NNW 18:48:50 10° ENE daylight
28 Oct - 20:21:57 10° WNW 20:25:40 48° N 20:29:32 10° ENE daylight
28 Oct - 22:02:32 10° WNW 22:06:28 73° NNE 22:10:36 10° ESE visible
28 Oct - 23:43:08 10° W 23:46:47 33° SW 23:50:38 10° SSE visible
29 Oct - 17:06:01 10° SSW 17:09:24 33° SE 17:12:50 10° E daylight
29 Oct - 18:45:56 10° W 18:49:41 68° NNW 18:53:33 10° ENE daylight
29 Oct - 20:26:45 10° WNW 20:30:29 49° N 20:34:22 10° E daylight
29 Oct - 22:07:16 10° WNW 22:11:11 86° SSW 22:15:20 10° ESE visible
29 Oct - 23:48:09 10° W 23:51:20 22° SW 23:54:40 10° S visible
30 Oct - 17:10:21 10° SW 17:13:59 50° SSE 17:17:40 10° ENE daylight
30 Oct - 18:50:45 10° W 18:54:27 56° NNW 18:58:16 10° ENE daylight
30 Oct - 20:31:32 10° WNW 20:35:17 53° N 20:39:13 10° E daylight
30 Oct - 22:11:59 10° WNW 22:15:51 63° SSW 22:19:57 10° SE visible
30 Oct - 23:53:33 10° W 23:55:49 15° SW 23:58:09 10° S visible
31 Oct - 15:36:20 10° S 15:38:41 16° SE 15:41:02 10° E daylight
31 Oct - 17:14:54 10° WSW 17:18:38 74° SSE 17:22:25 10° ENE daylight
31 Oct - 18:55:35 10° W 18:59:15 49° N 19:03:02 10° ENE daylight
31 Oct - 20:36:15 10° WNW 20:40:03 62° NNE 20:44:02 10° E daylight
31 Oct - 22:16:45 10° WNW 22:20:30 43° SSW 22:24:25 10° SE visible
01 Nov - 15:40:04 10° SSW 15:43:11 25° SE 15:46:16 10° E daylight
01 Nov - 17:19:35 10° WSW 17:23:19 81° NNW 17:27:08 10° ENE daylight
01 Nov - 19:00:24 10° WNW 19:04:03 47° N 19:07:49 10° ENE daylight
01 Nov - 20:40:58 10° WNW 20:44:48 78° NNE 20:48:50 10° ESE daylight
01 Nov - 22:21:39 10° W 22:25:04 29° SW 22:28:38 10° SSE visible
02 Nov - 15:44:13 10° SW 15:47:43 37° SE 15:51:13 10° ENE daylight
02 Nov - 17:24:20 10° W 17:28:04 64° NNW 17:31:51 10° ENE daylight
02 Nov - 19:05:11 10° WNW 19:08:52 49° N 19:12:39 10° E daylight
02 Nov - 20:45:41 10° WNW 20:49:31 79° SSW 20:53:31 10° ESE daylight
02 Nov - 22:26:45 10° W 22:29:35 19° SW 22:32:31 10° S visible
03 Nov - 14:11:13 10° SSE 14:12:31 11° SE 14:13:48 10° ESE daylight
03 Nov - 15:48:37 10° SW 15:52:19 56° SSE 15:56:01 10° ENE daylight
03 Nov - 17:29:09 10° W 17:32:50 53° N 17:36:34 10° ENE daylight
03 Nov - 19:09:56 10° WNW 19:13:39 54° N 19:17:29 10° E daylight
03 Nov - 20:50:25 10° WNW 20:54:10 55° SSW 20:58:06 10° SE daylight
03 Nov - 22:32:27 10° WSW 22:34:02 12° SW 22:35:40 10° SSW visible
04 Nov - 14:14:17 10° S 14:16:57 18° SE 14:19:36 10° E daylight
04 Nov - 15:53:12 10° WSW 15:56:59 81° SSE 16:00:45 10° ENE daylight
04 Nov - 17:33:59 10° W 17:37:37 48° N 17:41:20 10° ENE daylight
04 Nov - 19:14:39 10° WNW 19:18:25 65° NNE 19:22:18 10° E daylight
04 Nov - 20:55:12 10° WNW 20:58:46 37° SW 21:02:29 10° SSE daylight
05 Nov - 14:18:10 10° SSW 14:21:28 28° SE 14:24:43 10° E daylight
05 Nov - 15:57:54 10° WSW 16:01:41 75° NNW 16:05:27 10° ENE daylight
05 Nov - 17:38:47 10° WNW 17:42:26 47° N 17:46:07 10° ENE daylight
05 Nov - 19:19:21 10° WNW 19:23:09 84° NNE 19:27:03 10° ESE daylight
05 Nov - 21:00:09 10° W 21:03:19 25° SW 21:06:36 10° SSE daylight
06 Nov - 14:22:23 10° SW 14:26:02 42° SSE 14:29:36 10° ENE daylight
06 Nov - 16:02:41 10° W 16:06:26 60° NNW 16:10:09 10° ENE daylight
06 Nov - 17:43:34 10° WNW 17:47:13 50° N 17:50:57 10° E daylight
06 Nov - 19:24:04 10° WNW 19:27:50 72° SSW 19:31:43 10° ESE daylight
06 Nov - 21:05:22 10° W 21:07:49 16° SW 21:10:19 10° S visible
